User: anonymous   Login
Location: Lawrence
(38.9720°N, 95.2350°W)
Time: 21:34:13
(UTC-05:00)
Language:

ALOS - Orbit

View from above orbital plane
View from above orbital plane
View from above satellite
View from above satellite

Ground track
Ground track

The orbit data is extracted from the following two-line orbital elements,

1 28931U 06002A   17085.96049789 +.00000098 +00000-0 +28021-4 0  9998
2 28931 097.8529 117.3965 0001317 127.4589 232.6733 14.62327683595440
Epoch (UTC): 26 March 2017 23:03:07
Eccentricity: 0.0001317
inclination: 97.8529°
perigee height: 685 km
apogee height: 686 km
right ascension of ascending node: 117.3965°
argument of perigee: 127.4589°
revolutions per day: 14.62327683
mean anomaly at epoch: 232.6733°
orbit number at epoch: 59544

The dashed part of the orbit path shows where the satellite is in the earth's shadow,  

DLR